This is the latest recevied weather packets stored in our database for station/object KI5UTS-13. If no packets are shown the sender has not sent any weather packets the latest 10 day(s).
| Time | Temp. | Humidity | Pressure | Rain* | Wind** | Luminosity | Snow |
|---|---|---|---|---|---|---|---|
| 1788471300 | 34.44° C | 59% | 1014.9 hPa | 0 mm | - | 426 W/m² | - |
| 1788470996 | 34.44° C | 58% | 1015 hPa | 0 mm | - | 459 W/m² | - |
| 1788470691 | 34.44° C | 61% | 1015.1 hPa | 0 mm | - | 495 W/m² | - |
| 1788470391 | 34.44° C | 61% | 1015.1 hPa | 0 mm | - | 487 W/m² | - |
| 1788470087 | 34.44° C | 60% | 1014.9 hPa | 0 mm | - | 512 W/m² | - |
| 1788469784 | 34.44° C | 60% | 1015.1 hPa | 0 mm | - | 514 W/m² | - |
| 1788469483 | 33.89° C | 61% | 1015.1 hPa | 0 mm | - | 544 W/m² | - |
| 1788469178 | 33.89° C | 61% | 1015 hPa | 0 mm | - | 538 W/m² | - |
| 1788468873 | 34.44° C | 60% | 1015.2 hPa | 0 mm | - | 558 W/m² | - |
| 1788468567 | 34.44° C | 59% | 1015.2 hPa | 0 mm | - | 552 W/m² | - |
| 1788468264 | 34.44° C | 58% | 1015.3 hPa | 0 mm | - | 571 W/m² | - |
| 1788467959 | 34.44° C | 58% | 1015.2 hPa | 0 mm | - | 561 W/m² | - |
| 1788467654 | 34.44° C | 59% | 1015.4 hPa | 0 mm | - | 586 W/m² | - |
| 1788467353 | 34.44° C | 58% | 1015.2 hPa | 0 mm | - | 619 W/m² | - |
| 1788467073 | 35.56° C | 57% | 1015.2 hPa | 0 mm | - | 432 W/m² | - |
| 1788466750 | 34.44° C | 59% | 1015.3 hPa | 0 mm | - | 138 W/m² | - |
| 1788466445 | 34.44° C | 57% | 1015.3 hPa | 0 mm | - | 157 W/m² | - |
| 1788466144 | 35° C | 58% | 1015.4 hPa | 0 mm | - | 226 W/m² | - |
| 1788465839 | 35° C | 58% | 1015.2 hPa | 0 mm | - | 301 W/m² | - |
| 1788465534 | 35° C | 58% | 1015.2 hPa | 0 mm | - | 344 W/m² | - |
| 1788465230 | 35° C | 58% | 1015.2 hPa | 0 mm | - | 643 W/m² | - |
| 1788464924 | 35° C | 58% | 1015.3 hPa | 0 mm | - | 690 W/m² | - |
| 1788464620 | 34.44° C | 59% | 1015.3 hPa | 0 mm | - | 684 W/m² | - |
| 1788464316 | 34.44° C | 60% | 1015.5 hPa | 0 mm | - | 694 W/m² | - |
| 1788464012 | 34.44° C | 60% | 1015.5 hPa | 0 mm | - | 692 W/m² | - |
* Rain latest hour (hover to see other rain measurements)
** Current wind speed in m/s (hover to see current wind gust speed)